Weather History for KMLC - February, 2014

Change the Weather History Date:

Friday, February 7, 2014

  Actual Average Record
Temperature  
Mean Temperature 24 °F -  
Max Temperature 30 °F 49 °F 76 °F (1969)
Min Temperature 19 °F 27 °F 8 °F (1985)
Degree Days  
Heating Degree Days 40    
Moisture  
Dew Point 20 °F    
Average Humidity 78    
Maximum Humidity 93    
Minimum Humidity 62    
Precipitation  
Precipitation 0.04 in - - ()
Sea Level Pressure  
Sea Level Pressure 30.30 in    
Wind  
Wind Speed 3 mph (SE)    
Max Wind Speed 6 mph    
Max Gust Speed -    
Visibility 5 miles    
Events Fog , Snow    
Averages and records for this station are not official NWS values.
T = Trace of Precipitation, MM = Missing Value Source: NWS Daily Summary

Daily Weather History Graph

Daily Weather History Graph

Search for Another Location

Airport or City:

Trip Planner

Search our weather history database for the weather conditions in past years. The results will help you decide how hot, cold, wet, or windy it might be!

Date:

Astronomy

Feb. 07, 2014 Rise Set
Actual Time 7:16 AM CST 5:58 PM CST
Civil Twilight 6:50 AM CST 6:24 PM CST
Nautical Twilight 6:20 AM CST 6:54 PM CST
Astronomical Twilight 5:51 AM CST 7:24 PM CST
Moon 12:12 PM CST (2/7) 1:31 AM CST (2/7)
Length of Visible Light 11h 34m
Length of Day
10h 41m
First Quarter, 59% of the Moon is Illuminated
Feb 7
First Quarter
Feb 14
Full
Feb 22
Last Quarter
Mar 1
New
Mar 8
First Quarter

Hourly Weather History & Observations

Time (CST) Temp. Windchill Dew Point Humidity Pressure Visibility Wind Dir Wind Speed Gust Speed Precip Events Conditions
12:53 AM 19.0 °F - 10.0 °F 68% 30.45 in 10.0 mi Calm Calm - N/A   Overcast
1:53 AM 19.0 °F 13.9 °F 10.0 °F 68% 30.43 in 10.0 mi Variable 3.5 mph - N/A   Overcast
2:53 AM 19.0 °F 11.1 °F 8.1 °F 62% 30.43 in 10.0 mi NE 5.8 mph - N/A   Overcast
3:53 AM 19.0 °F 11.1 °F 9.0 °F 65% 30.42 in 10.0 mi NE 5.8 mph - N/A   Overcast
4:53 AM 19.0 °F 12.3 °F 9.0 °F 65% 30.42 in 10.0 mi NE 4.6 mph - N/A   Overcast
5:53 AM 19.0 °F 12.3 °F 9.0 °F 65% 30.40 in 10.0 mi ENE 4.6 mph - N/A   Overcast
6:53 AM 19.0 °F 12.3 °F 10.0 °F 68% 30.41 in 10.0 mi NNE 4.6 mph - N/A   Overcast
7:53 AM 19.9 °F 14.9 °F 10.9 °F 68% 30.40 in 10.0 mi ENE 3.5 mph - N/A   Overcast
8:53 AM 19.9 °F 14.9 °F 12.0 °F 71% 30.42 in 10.0 mi NE 3.5 mph - N/A   Overcast
9:53 AM 21.9 °F 17.2 °F 12.9 °F 68% 30.42 in 10.0 mi Variable 3.5 mph - N/A   Overcast
10:53 AM 23.0 °F 18.4 °F 14.0 °F 68% 30.42 in 10.0 mi East 3.5 mph - N/A   Overcast
11:53 AM 26.1 °F - 16.0 °F 66% 30.38 in 10.0 mi Calm Calm - N/A   Overcast
12:53 PM 27.0 °F - 17.1 °F 66% 30.32 in 10.0 mi Calm Calm - N/A   Overcast
1:53 PM 28.9 °F - 18.0 °F 64% 30.29 in 10.0 mi Calm Calm - N/A   Overcast
2:53 PM 30.0 °F - 19.0 °F 64% 30.27 in 10.0 mi Calm Calm - N/A   Overcast
3:53 PM 30.0 °F - 19.9 °F 66% 30.27 in 3.0 mi Calm Calm - 0.00 in Snow Light Snow
3:57 PM 28.4 °F - 19.4 °F 69% 30.25 in 1.8 mi Calm Calm - 0.00 in Snow Light Snow
4:00 PM 28.4 °F - 21.2 °F 74% 30.25 in 1.2 mi Calm Calm - 0.00 in Snow Light Snow
4:27 PM 28.4 °F 23.3 °F 23.0 °F 80% 30.25 in 0.8 mi South 4.6 mph - 0.00 in Snow Light Snow
4:33 PM 28.4 °F 24.6 °F 24.8 °F 86% 30.25 in 0.5 mi South 3.5 mph - 0.00 in Snow Snow
4:40 PM 28.4 °F 23.3 °F 24.8 °F 86% 30.25 in 0.5 mi South 4.6 mph - 0.01 in Fog , Snow Snow
4:43 PM 28.4 °F 24.6 °F 24.8 °F 86% 30.24 in 0.8 mi South 3.5 mph - 0.01 in Snow Light Snow
4:53 PM 28.9 °F 25.2 °F 25.0 °F 85% 30.27 in 0.8 mi South 3.5 mph - 0.01 in Snow Light Snow
4:59 PM 28.4 °F 24.6 °F 24.8 °F 86% 30.24 in 1.0 mi Variable 3.5 mph - 0.00 in Snow Light Snow
5:08 PM 28.4 °F - 24.8 °F 86% 30.24 in 1.2 mi Calm Calm - 0.00 in Snow Light Snow
5:17 PM 28.4 °F 23.3 °F 24.8 °F 86% 30.23 in 1.5 mi SSE 4.6 mph - 0.00 in Snow Light Snow
5:25 PM 28.4 °F 23.3 °F 24.8 °F 86% 30.23 in 1.5 mi South 4.6 mph - 0.00 in Snow Light Snow
5:40 PM 28.4 °F 24.6 °F 24.8 °F 86% 30.23 in 1.2 mi SSE 3.5 mph - 0.00 in Snow Light Snow
5:53 PM 28.0 °F 22.8 °F 24.1 °F 85% 30.27 in 1.2 mi SSE 4.6 mph - 0.00 in Snow Light Snow
6:05 PM 28.4 °F 23.3 °F 24.8 °F 86% 30.24 in 1.2 mi SE 4.6 mph - 0.01 in Snow Light Snow
6:16 PM 28.4 °F 24.6 °F 24.8 °F 86% 30.24 in 1.5 mi SE 3.5 mph - 0.01 in Snow Light Snow
6:33 PM 28.4 °F - 24.8 °F 86% 30.24 in 1.5 mi Calm Calm - 0.01 in Snow Light Snow
6:42 PM 28.4 °F 24.6 °F 24.8 °F 86% 30.24 in 1.0 mi Variable 3.5 mph - 0.02 in Snow Light Snow
6:50 PM 28.4 °F - 24.8 °F 86% 30.25 in 0.8 mi Calm Calm - 0.03 in Snow Light Snow
6:53 PM 28.0 °F - 24.1 °F 85% 30.27 in 0.8 mi Calm Calm - 0.03 in Snow Light Snow
7:01 PM 26.6 °F 20.0 °F 24.8 °F 93% 30.24 in 1.2 mi SSE 5.8 mph - 0.00 in Snow Light Snow
7:10 PM 26.6 °F 21.2 °F 23.0 °F 86% 30.24 in 1.8 mi SSE 4.6 mph - 0.00 in Snow Light Snow
7:15 PM 26.6 °F 21.2 °F 23.0 °F 86% 30.23 in 2.0 mi SE 4.6 mph - 0.00 in Snow Light Snow
7:27 PM 26.6 °F 21.2 °F 23.0 °F 86% 30.24 in 3.0 mi SSE 4.6 mph - 0.00 in Snow Light Snow
7:53 PM 27.0 °F 21.6 °F 23.0 °F 85% 30.26 in 5.0 mi SSE 4.6 mph - 0.00 in Snow Light Snow
8:53 PM 28.0 °F - 24.1 °F 85% 30.28 in 10.0 mi Calm Calm - 0.00 in   Overcast
9:53 PM 28.0 °F 24.2 °F 23.0 °F 81% 30.27 in 10.0 mi South 3.5 mph - N/A   Overcast
10:13 PM 28.4 °F 24.6 °F 24.8 °F 86% 30.25 in 10.0 mi South 3.5 mph - N/A   Overcast
10:53 PM 28.0 °F - 23.0 °F 81% 30.26 in 10.0 mi Calm Calm - N/A   Overcast
11:53 PM 28.0 °F 24.2 °F 23.0 °F 81% 30.25 in 10.0 mi South 3.5 mph - N/A   Overcast